Station 45208 - Ashtabula Buoy Image indicating link to RSS feed of recent meteorological observations for station 45208


Conditions at 45208 as of
(3:20 am EDT)
0720 GMT on 06/23/2024:
     

Click on the graph icon in the table below to see a time series plot of the last five days of that observation.

5-day plot - Wind Direction Wind Direction (WDIR):WSW ( 240 deg true )
5-day plot - Wind Speed Wind Speed (WSPD): 11.7 kts
5-day plot - Wind Gust Wind Gust (GST): 17.5 kts
5-day plot - Wave Height Wave Height (WVHT): 0.7 ft
5-day plot - Mean Wave Direction Mean Wave Direction (MWD):WNW ( 299 deg true )
5-day plot - Atmospheric Pressure Atmospheric Pressure (PRES):29.69 in
5-day plot - Air Temperature Air Temperature (ATMP): 80.8 °F
5-day plot - Water Temperature Water Temperature (WTMP): 76.6 °F
5-day plot - Dew Point Dew Point (DEWP): 71.1 °F
5-day plot - Heat Index Heat Index (HEAT): 84.6 °F
5-day plot - Wind Speed at 10 Meters Wind Speed at 10 meters (WSPD10M): 13.6 kts
5-day plot - Wind Speed at 20 Meters Wind Speed at 20 meters (WSPD20M): 15.5 kts
5-day plot -  Wind Speed, Wind Gust and Atmospheric Pressure Combined plot of Wind Speed, Gust, and Air Pressure
Previous observations
TIME
(EDT)
5-day plot - Wind Direction
WDIR
 
5-day plot - Wind Speed
WSPD
kts
5-day plot - Wind Gust
GST
kts
5-day plot - Wave Height
WVHT
ft
5-day plot - Dominant Wave Period
DPD
sec
5-day plot - Average Wave Period
APD
sec
5-day plot - Mean Wave Direction
MWD
 
5-day plot - Atmospheric Pressure
PRES
in
5-day plot - Pressure Tendency
PTDY
in
5-day plot - Air Temperature
ATMP
°F
5-day plot - Water Temperature
WTMP
°F
5-day plot - Dew Point
DEWP
°F
5-day plot - Salinity
SAL
psu
5-day plot - Visibility
VIS
nmi
5-day plot - Tide (above MLLW)
TIDE
ft
2024-06-23 03:10 amWSW 11.7 17.5 0.7--WNW29.69- 80.8 76.6 71.2---
2024-06-23 02:50 amWSW 11.7 15.5 0.7--WNW29.70- 80.6 76.8 71.2---
2024-06-23 02:40 am SW 11.7 17.5 0.7--WNW29.70- 80.6 76.8 71.4---
2024-06-23 02:30 am SW 11.7 15.5 0.7--WNW29.71- 80.8 76.8 71.4---
2024-06-23 02:20 amWSW 11.7 15.5 0.7--WNW29.71- 81.0 76.8 71.4---
2024-06-23 02:10 amWSW 11.7 15.5 0.7--WNW29.71- 81.0 77.0 71.4---
2024-06-23 01:50 am SW 9.7 13.6 0.7--WNW29.72- 81.1 77.0 71.6---
2024-06-23 01:40 am SW 11.7 13.6 0.7--WNW29.72- 81.3 77.0 71.4---
2024-06-23 01:30 am SW 11.7 15.5 0.7--WNW29.73- 81.3 77.0 71.4---
2024-06-23 01:20 am SW 9.7 17.5 0.7--WNW29.73- 81.3 77.0 71.6---
2024-06-23 01:10 am SW 9.7 13.6 0.7--WNW29.74- 81.5 77.2 71.6---
2024-06-23 12:50 am SW 11.7 15.5 0.7--WNW29.75- 81.7 77.2 71.6---
2024-06-23 12:40 am SW 9.7 13.6 0.7--WNW29.75- 81.9 77.2 71.6---
2024-06-23 12:30 am SW 11.7 15.5 0.7--WNW29.75- 81.9 77.2 71.4---
2024-06-23 12:20 am SW 9.7 13.6 0.7--WNW29.75- 81.7 77.4 71.6---
2024-06-23 12:10 am SW 9.7 13.6 0.7--WNW29.76- 82.0 77.4 71.8---
2024-06-22 11:50 pmWSW 9.7 13.6 0.7--WNW29.76- 82.6 77.4 71.8---
2024-06-22 11:40 pm SW 9.7 13.6 0.3--WNW29.75- 82.8 77.4 72.0---
2024-06-22 11:30 pm SW 9.7 17.5 0.3--WNW29.76- 83.1 77.5 72.0---
2024-06-22 11:20 pm SW 9.7 15.5 0.3--WNW29.76- 82.9 77.5 72.1---
2024-06-22 11:10 pm SW 9.7 13.6 0.3--WNW29.77- 82.9 77.7 72.3---
2024-06-22 10:50 pm SW 9.7 13.6 0.3-- W29.77- 83.1 77.7 72.9---
2024-06-22 10:40 pmWSW 9.7 13.6 0.3-- W29.77- 83.3 77.7 73.0---
2024-06-22 10:30 pm SW 9.7 11.7 0.3-- W29.77- 83.5 77.7 73.2---
2024-06-22 10:20 pmWSW 9.7 11.7 0.3-- W29.77- 83.7 77.7 73.4---
2024-06-22 10:10 pm SW 9.7 11.7 0.3--WNW29.77- 83.8 77.9 73.6---
2024-06-22 09:50 pm SW 7.8 11.7 0.3--WNW29.77- 83.8 77.9 74.1---
2024-06-22 09:40 pm SW 7.8 9.7 0.3--WNW29.77- 83.8 77.9 74.1---
2024-06-22 09:30 pmSSW 5.8 7.8 0.3--WNW29.78- 84.0 77.9 74.3---
2024-06-22 09:20 pmSSW 5.8 7.8 0.3-- NW29.78- 84.0 78.1 74.1---
2024-06-22 09:10 pmSSW 3.9 5.8 0.3-- NW29.78- 84.0 78.1 74.3---
2024-06-22 08:50 pm S 5.8 7.8 0.3--WNW29.79- 84.2 77.9 74.1---
2024-06-22 08:40 pm S 3.9 5.8 0.3--WNW29.80- 83.8 78.1 74.7---
2024-06-22 08:30 pm S 3.9 5.8 0.3--WNW29.80- 84.2 77.9 74.3---
2024-06-22 08:20 pm S 3.9 3.9 0.3--WNW29.80- 84.0 77.7 74.1---
2024-06-22 08:10 pmSSE 1.9 3.9 0.3-- NW29.81- 83.1 77.7 74.3---
2024-06-22 07:50 pmESE 1.9 1.9 0.3--WNW29.81- 82.8 77.7 70.7---
2024-06-22 07:40 pm SE 1.9 3.9 0.3--WNW29.81- 82.6 77.7 69.1---
2024-06-22 07:30 pm- 0.0 1.9 0.3-- W29.82- 82.0 77.7 68.5---
2024-06-22 07:20 pm- 0.0 1.9 0.7--WNW29.83- 81.5 77.5 71.6---
2024-06-22 07:10 pm- 0.0 1.9 0.3--WNW29.83- 82.0 77.5 72.3---
2024-06-22 06:50 pm- 0.0 1.9 0.7-- W29.83- 81.5 77.5 73.2---
2024-06-22 06:40 pm S 1.9 1.9 0.7-- W29.83- 81.1 77.4 73.2---
2024-06-22 06:30 pm- 0.0 3.9 0.7--WNW29.84- 81.0 77.4 73.8---
2024-06-22 06:20 pmNNW 1.9 1.9 0.7-- W29.84- 81.1 77.5 74.1---
2024-06-22 06:10 pmNNW 1.9 1.9 0.7-- W29.85- 81.7 77.5 73.4---
2024-06-22 05:50 pm NW 1.9 1.9 0.7--WNW29.85- 81.7 77.4 72.1---
2024-06-22 05:40 pmNNW 1.9 3.9 0.7--WNW29.85- 81.5 77.5 73.2---
2024-06-22 05:30 pm NW 1.9 3.9 0.7--WNW29.86- 81.7 77.4 72.9---
2024-06-22 05:20 pm W 1.9 3.9 0.7-- NW29.86- 81.1 77.2 73.6---
2024-06-22 05:10 pmWSW 1.9 3.9 0.7-- NW29.86- 80.8 77.2 73.9---
2024-06-22 04:50 pmWSW 3.9 3.9 0.7--WNW29.87- 80.8 77.2 73.8---
2024-06-22 04:40 pmWSW 3.9 5.8 0.7--WNW29.88- 81.0 77.4 73.6---
2024-06-22 04:30 pm W 3.9 3.9 0.7--WNW29.88- 80.4 77.5 74.7---
2024-06-22 04:20 pm W 3.9 3.9 1.0 3-WNW29.88- 80.4 77.5 75.2---
2024-06-22 04:10 pmWNW 3.9 5.8 1.0 3- W29.89- 80.1 77.7 75.2---
2024-06-22 03:50 pmWNW 3.9 5.8 1.0 3-WNW29.90- 80.1 77.7 74.7---
2024-06-22 03:40 pm W 3.9 5.8 1.0 3-WNW29.90- 79.7 77.9 75.0---
2024-06-22 03:30 pm W 3.9 5.8 0.7--WNW29.91- 79.5 77.7 75.0---
2024-06-22 03:20 pm W 3.9 5.8 1.0 2-WNW29.91- 79.3 77.4 75.2---
2024-06-22 03:10 pm W 3.9 5.8 1.0 2-WNW29.91- 79.0 77.5 75.4---
2024-06-22 02:50 pm W 3.9 5.8 1.0 3-WNW29.91- 78.8 77.5 75.6---
2024-06-22 02:40 pm W 3.9 5.8 1.0 3-WNW29.92- 78.8 77.5 75.4---
2024-06-22 02:30 pm W 3.9 5.8 1.0 3-WNW29.92- 78.8 77.5 75.4---
2024-06-22 02:20 pm W 5.8 7.8 1.0 3-WNW29.92- 78.6 77.2 75.4---
2024-06-22 02:10 pm W 5.8 9.7 1.0 3-WNW29.92- 78.6 77.4 75.4---
2024-06-22 01:50 pm W 7.8 9.7 1.0 2-WNW29.93- 78.6 77.0 75.2---
2024-06-22 01:40 pm W 5.8 7.8 1.0 2-WNW29.93- 78.6 77.0 75.2---
2024-06-22 01:30 pm W 5.8 7.8 1.0 2- NW29.93- 78.6 76.8 75.2---
2024-06-22 01:20 pm W 5.8 9.7 1.0 2-WNW29.94- 78.8 76.8 75.2---
2024-06-22 01:10 pmWNW 5.8 9.7 1.0 2- NW29.94- 78.8 76.6 75.0---
2024-06-22 12:50 pmWNW 5.8 7.8 0.7-- NW29.95- 78.8 76.6 75.2---
2024-06-22 12:40 pm W 5.8 7.8 0.7--WNW29.95- 78.8 77.0 75.0---
2024-06-22 12:30 pmWNW 5.8 7.8 0.7--WNW29.96- 78.8 76.6 74.8---
2024-06-22 12:20 pmWNW 7.8 9.7 0.7--WNW29.96- 79.0 76.5 74.8---
2024-06-22 12:10 pmWNW 5.8 7.8 0.7--WNW29.96- 78.8 76.8 74.8---
2024-06-22 11:50 amWNW 5.8 5.8 0.7-- NW29.97- 78.4 76.6 75.0---
2024-06-22 11:40 amWNW 3.9 5.8 0.7--NNE29.97- 78.4 76.8 74.8---
2024-06-22 11:30 amWNW 5.8 7.8 0.3--ENE29.97- 78.4 76.5 74.7---
2024-06-22 11:20 amWNW 5.8 7.8 0.3-- NE29.97- 78.6 76.3 74.7---
2024-06-22 11:10 am NW 5.8 7.8 0.7-- NE29.97- 79.0 75.9 74.7---
2024-06-22 10:50 amNNW 5.8 5.8 0.3-- SE29.97- 79.5 75.7 75.6---
2024-06-22 10:40 amNNW 3.9 5.8 0.3-- NE29.97- 79.9 75.7 75.6---
2024-06-22 10:30 am N 3.9 3.9 0.3--NNE29.98- 80.6 75.4 75.7---
2024-06-22 10:20 am N 1.9 3.9 0.3-- NE29.98- 81.1 75.2 75.6---
2024-06-22 10:10 amNNW 1.9 1.9 0.3--NNW29.98- 81.0 75.0 75.2---
2024-06-22 09:50 amWSW 1.9 3.9 0.3--ESE29.98- 80.4 74.8 74.3---
2024-06-22 09:40 am W 1.9 3.9 0.3--ENE29.98- 80.2 74.8 74.3---
2024-06-22 09:30 amWSW 1.9 3.9 0.3-- NW29.98- 79.9 74.7 74.1---
2024-06-22 09:20 am SW 1.9 3.9 0.3--NNW29.98- 79.7 74.5 73.9---
2024-06-22 09:10 am SW 3.9 5.8 0.3-- NW29.98- 79.5 74.5 73.6---
2024-06-22 08:50 am SW 5.8 9.7 0.3--NNW29.99- 79.0 74.3 73.0---
2024-06-22 08:40 am SW 5.8 9.7 0.3--WNW29.99- 78.6 74.3 72.9---
2024-06-22 08:30 am SW 5.8 9.7 0.3--WNW30.00- 78.4 74.3 72.9---
2024-06-22 08:20 am SW 5.8 9.7 0.3-- N30.00- 78.1 74.3 72.9---
2024-06-22 08:10 am SW 5.8 9.7 0.3-- NW30.00- 77.7 74.3 72.7---
2024-06-22 07:50 amSSW 7.8 11.7 0.3--WNW30.00- 77.2 74.7 72.5---
2024-06-22 07:40 am SW 7.8 9.7 0.3-- W30.00- 77.0 74.7 72.5---
2024-06-22 07:30 am SW 5.8 9.7 0.3--WNW30.00- 76.6 74.7 72.5---
2024-06-22 07:20 am SW 5.8 7.8 0.3--NNW30.00- 76.5 74.8 72.3---
2024-06-22 07:10 amSSW 5.8 9.7 0.3-- N30.00- 76.1 75.0 72.3---
2024-06-22 06:50 amSSW 5.8 9.7 0.3-- NE30.01- 75.7- 72.1---
2024-06-22 06:40 amSSW 7.8 9.7 0.3-- NW30.01- 75.6- 71.4---
2024-06-22 06:30 amSSW 7.8 9.7 0.3--WNW30.01- 75.7 75.6 72.1---
2024-06-22 06:20 amSSW 7.8 9.7 0.3--NNE30.01- 75.7 75.7 72.1---
2024-06-22 06:10 am S 5.8 9.7 0.3-- N30.01- 75.7 75.7 72.1---
2024-06-22 05:50 amSSW 3.9 5.8 0.3-- N30.01- 75.6 73.4 72.0---
2024-06-22 05:40 amSSW 3.9 3.9 0.3-- N30.01- 75.7 74.3 72.1---
2024-06-22 05:30 amSSW 1.9 5.8 0.3-- N30.02- 75.9 73.4 72.0---
2024-06-22 05:20 amESE 1.9 1.9 0.0--WNW30.02- 75.7 74.1 72.1---
2024-06-22 05:10 amSSW 1.9 1.9 0.0--WNW30.01- 75.7 74.7 72.1---
2024-06-22 04:50 am W 1.9 3.9 0.0-- W30.01- 75.9 75.4 71.8---
2024-06-22 04:40 am NE 1.9 3.9 0.0-- W30.01- 75.7 75.4 71.8---
2024-06-22 04:30 am S 1.9 1.9 0.0-- W30.01- 75.7 73.4 71.8---
2024-06-22 04:20 am SW 3.9 5.8 0.0--WNW30.02- 76.1 75.2 72.0---
2024-06-22 04:10 amWSW 1.9 3.9 0.0-- W30.02- 76.3 75.4 72.1---
2024-06-22 03:50 am SW 3.9 3.9 0.0--NNE30.02- 76.3 75.7 72.0---
2024-06-22 03:40 amSSW 3.9 3.9 0.0--ENE30.02- 76.3 75.7 72.3---
2024-06-22 03:30 am SW 3.9 5.8 0.3-- NE30.02- 76.3 75.6 72.5---
2024-06-22 03:20 amSSW 3.9 5.8 0.3-- NE30.02- 76.1 75.6 72.9---
2024-06-22 03:10 amSSW 1.9 3.9 0.3-- NE30.02- 76.1 75.4 72.9---
2024-06-22 02:50 am SW 1.9 3.9 0.3--NNW30.03- 77.0 74.8 72.7---

Detailed Wave Summary
for 45208 as of (3:20 am EDT)
0720 GMT on 06/23/2024:

These wave data are displayed in rounded times.

     

Click on the graph icon in the table below to see a time series plot of the last five days of that observation.

5-day plot - Significant Wave Height Significant Wave Height (WVHT): 0.7 ft
Previous observations
TIME
(EDT)
5-day plot - Wave Height
WVHT
ft
5-day plot - Swell Height
SwH
ft
5-day plot - Swell Period
SwP
sec
5-day plot - Swell Direction
SwD
 
5-day plot - Wind Wave Height
WWH
ft
5-day plot - Wind Wave Period
WWP
sec
5-day plot - Wind Wave Direction
WWD
 
5-day plot - Wave Steepness
STEEPNESS
 
5-day plot - Average Wave Period
APD
sec
2024-06-23 03:10 am 0.7------ N/A-
2024-06-23 02:50 am 0.7------ N/A-
2024-06-23 02:40 am 0.7------ N/A-
2024-06-23 02:30 am 0.7------ N/A-
2024-06-23 02:20 am 0.7------ N/A-
2024-06-23 02:10 am 0.7------ N/A-
2024-06-23 01:50 am 0.7------ N/A-
2024-06-23 01:40 am 0.7------ N/A-
2024-06-23 01:30 am 0.7------ N/A-
2024-06-23 01:20 am 0.7------ N/A-
2024-06-23 01:10 am 0.7------ N/A-
2024-06-23 12:50 am 0.7------ N/A-
2024-06-23 12:40 am 0.7------ N/A-
2024-06-23 12:30 am 0.7------ N/A-
2024-06-23 12:20 am 0.7------ N/A-
2024-06-23 12:10 am 0.7------ N/A-
2024-06-22 11:50 pm 0.7------ N/A-
2024-06-22 11:40 pm 0.3------ N/A-
2024-06-22 11:30 pm 0.3------ N/A-
2024-06-22 11:20 pm 0.3------ N/A-
2024-06-22 11:10 pm 0.3------ N/A-
2024-06-22 10:50 pm 0.3------ N/A-
2024-06-22 10:40 pm 0.3------ N/A-
2024-06-22 10:30 pm 0.3------ N/A-
2024-06-22 10:20 pm 0.3------ N/A-
2024-06-22 10:10 pm 0.3------ N/A-
2024-06-22 09:50 pm 0.3------ N/A-
2024-06-22 09:40 pm 0.3------ N/A-
2024-06-22 09:30 pm 0.3------ N/A-
2024-06-22 09:20 pm 0.3------ N/A-
2024-06-22 09:10 pm 0.3------ N/A-
2024-06-22 08:50 pm 0.3------ N/A-
2024-06-22 08:40 pm 0.3------ N/A-
2024-06-22 08:30 pm 0.3------ N/A-
2024-06-22 08:20 pm 0.3------ N/A-
2024-06-22 08:10 pm 0.3------ N/A-
2024-06-22 07:50 pm 0.3------ N/A-
2024-06-22 07:40 pm 0.3------ N/A-
2024-06-22 07:30 pm 0.3------ N/A-
2024-06-22 07:20 pm 0.7------ N/A-
2024-06-22 07:10 pm 0.3------ N/A-
2024-06-22 06:50 pm 0.7------ N/A-
2024-06-22 06:40 pm 0.7------ N/A-
2024-06-22 06:30 pm 0.7------ N/A-
2024-06-22 06:20 pm 0.7------ N/A-
2024-06-22 06:10 pm 0.7------ N/A-
2024-06-22 05:50 pm 0.7------ N/A-
2024-06-22 05:40 pm 0.7------ N/A-
2024-06-22 05:30 pm 0.7------ N/A-
2024-06-22 05:20 pm 0.7------ N/A-
2024-06-22 05:10 pm 0.7------ N/A-
2024-06-22 04:50 pm 0.7------ N/A-
2024-06-22 04:40 pm 0.7------ N/A-
2024-06-22 04:30 pm 0.7------ N/A-
2024-06-22 04:20 pm 1.0------ N/A-
2024-06-22 04:10 pm 1.0------ N/A-
2024-06-22 03:50 pm 1.0------ N/A-
2024-06-22 03:40 pm 1.0------ N/A-
2024-06-22 03:30 pm 0.7------ N/A-
2024-06-22 03:20 pm 1.0------ N/A-
2024-06-22 03:10 pm 1.0------ N/A-
2024-06-22 02:50 pm 1.0------ N/A-
2024-06-22 02:40 pm 1.0------ N/A-
2024-06-22 02:30 pm 1.0------ N/A-
2024-06-22 02:20 pm 1.0------ N/A-
2024-06-22 02:10 pm 1.0------ N/A-
2024-06-22 01:50 pm 1.0------ N/A-
2024-06-22 01:40 pm 1.0------ N/A-
2024-06-22 01:30 pm 1.0------ N/A-
2024-06-22 01:20 pm 1.0------ N/A-
2024-06-22 01:10 pm 1.0------ N/A-
2024-06-22 12:50 pm 0.7------ N/A-
2024-06-22 12:40 pm 0.7------ N/A-
2024-06-22 12:30 pm 0.7------ N/A-
2024-06-22 12:20 pm 0.7------ N/A-
2024-06-22 12:10 pm 0.7------ N/A-
2024-06-22 11:50 am 0.7------ N/A-
2024-06-22 11:40 am 0.7------ N/A-
2024-06-22 11:30 am 0.3------ N/A-
2024-06-22 11:20 am 0.3------ N/A-
2024-06-22 11:10 am 0.7------ N/A-
2024-06-22 10:50 am 0.3------ N/A-
2024-06-22 10:40 am 0.3------ N/A-
2024-06-22 10:30 am 0.3------ N/A-
2024-06-22 10:20 am 0.3------ N/A-
2024-06-22 10:10 am 0.3------ N/A-
2024-06-22 09:50 am 0.3------ N/A-
2024-06-22 09:40 am 0.3------ N/A-
2024-06-22 09:30 am 0.3------ N/A-
2024-06-22 09:20 am 0.3------ N/A-
2024-06-22 09:10 am 0.3------ N/A-
2024-06-22 08:50 am 0.3------ N/A-
2024-06-22 08:40 am 0.3------ N/A-
2024-06-22 08:30 am 0.3------ N/A-
2024-06-22 08:20 am 0.3------ N/A-
2024-06-22 08:10 am 0.3------ N/A-
2024-06-22 07:50 am 0.3------ N/A-
2024-06-22 07:40 am 0.3------ N/A-
2024-06-22 07:30 am 0.3------ N/A-
2024-06-22 07:20 am 0.3------ N/A-
2024-06-22 07:10 am 0.3------ N/A-
2024-06-22 06:50 am 0.3------ N/A-
2024-06-22 06:40 am 0.3------ N/A-
2024-06-22 06:30 am 0.3------ N/A-
2024-06-22 06:20 am 0.3------ N/A-
2024-06-22 06:10 am 0.3------ N/A-
2024-06-22 05:50 am 0.3------ N/A-
2024-06-22 05:40 am 0.3------ N/A-
2024-06-22 05:30 am 0.3------ N/A-
2024-06-22 05:20 am 0.0------ N/A-
2024-06-22 05:10 am 0.0------ N/A-
2024-06-22 04:50 am 0.0------ N/A-
2024-06-22 04:40 am 0.0------ N/A-
2024-06-22 04:30 am 0.0------ N/A-
2024-06-22 04:20 am 0.0------ N/A-
2024-06-22 04:10 am 0.0------ N/A-
2024-06-22 03:50 am 0.0------ N/A-
2024-06-22 03:40 am 0.0------ N/A-
2024-06-22 03:30 am 0.3------ N/A-
2024-06-22 03:20 am 0.3------ N/A-
2024-06-22 03:10 am 0.3------ N/A-
2024-06-22 02:50 am 0.3------ N/A-